Location: Unspecified
(55.8762°N, 37.5216°E)
Time: 23:54:47
(UTC+03:00)

ISS - Visible Passes

Search period start: 08 March 2026 00:00
Search period end: 18 March 2026 00:00
Orbit: 416 x 427 km, 51.6° (Epoch: 8 March)

Date Brightness Start Highest point End Pass type
(mag) Time Alt. Az. Time Alt. Az. Time Alt. Az.
13 Mar -2.0 20:15:17 10° SSW 20:17:10 19° SSE 20:17:10 19° SSE visible
14 Mar -1.8 19:28:49 10° S 19:30:52 15° SSE 19:32:20 12° ESE visible
14 Mar -1.7 21:03:57 10° SW 21:05:20 20° SW 21:05:20 20° SW visible
15 Mar -2.7 20:17:01 10° SW 20:20:02 29° SSE 20:20:21 29° SSE visible
15 Mar -0.7 21:53:14 10° WSW 21:53:21 11° WSW 21:53:21 11° WSW visible
16 Mar -2.3 19:30:10 10° SW 19:32:59 25° SSE 19:35:16 13° ESE visible
16 Mar -2.3 21:06:08 10° WSW 21:08:15 30° SW 21:08:15 30° SW visible
17 Mar -3.0 20:19:04 10° WSW 20:22:15 38° S 20:23:04 32° SE visible
17 Mar -0.9 21:55:36 10° W 21:56:03 13° WSW 21:56:03 13° WSW visible
